Regional Weather Roundup
Issued by NWS Charleston, SC

Current Version | Previous Version | Graphics & Text | Print | Product List | Glossary On
Versions: 1 2 3 4 5 6 7 8 9 10 11 12 13 14 15 16 17 18 19 20 21 22 23 24 25 26 27 28 29 30 31 32 33 34 35 36 37 38 39 40 41 42 43 44 45 46 47 48 49 50
465
ASUS42 KCHS 270912
RWRCHS

REGIONAL WEATHER ROUNDUP
NATIONAL WEATHER SERVICE CHARLESTON SC
500 AM EDT SAT MAY 27 2017

NOTE: "FAIR" INDICATES FEW OR NO CLOUDS BELOW 12,000 FEET WITH NO
SIGNIFICANT WEATHER AND/OR OBSTRUCTIONS TO VISIBILITY.

NOT ALL STATIONS ARE QUALITY CONTROLLED. USE DATA WITH CAUTION...
ESPECIALLY DEWPOINT OBSERVATIONS.

SCZ027-030-031-034>040-042>050-271000-
...SOUTHEAST SOUTH CAROLINA...

CITY           SKY/WX    TMP DP  RH WIND       PRES   REMARKS
N CHARLESTON   PTCLDY    65  58  78 SW5       30.00S
WATERFRONT PRK   N/A     71  63  75 VRB3      29.99S
JOHNS ISLAND   FAIR      66  64  94 W3        30.01S
PINOPOLIS        N/A     70  63  78 SW7       29.90F
MONCKS CORNER  FAIR      61  57  88 CALM      29.99F
SUMMERVILLE    FAIR      61  59  94 S3        30.01S
BEAUFORT MCAS  CLEAR     65  62  90 SW5       30.01S
BEAUFORT ARPT  NOT AVBL
HILTON HEAD IS NOT AVBL
WALTERBORO     MOSUNNY   61  57  88 CALM      30.01S
ALLENDALE      FAIR      63  61  94 CALM      30.00S

...SOUTHERN MIDLANDS AND PEE DEE...

CITY           SKY/WX    TMP DP  RH WIND       PRES   REMARKS
GEORGETOWN     FAIR      61  59  94 SW5       30.00F
KINGSTREE      NOT AVBL
ORANGEBURG     CLEAR     62  60  93 CALM      29.99F
BARNWELL       FAIR      63  61  94 CALM      30.00F
AIKEN          FAIR      63  59  88 SW5       30.04F
MANNING        NOT AVBL
COLUMBIA       CLEAR     66  59  78 W6        29.97F
SUMTER         CLEAR     67  59  76 W5        29.95F
FLORENCE       CLEAR     63  58  83 CALM      29.97F
MYRTLE BEACH   NOT AVBL
N MYRTLE BEACH CLEAR     67  58  72 W3        29.97F

$$

GAZ063-065-086>088-099>101-113>116-118-119-134>141-150-271000-
...SOUTHEAST GEORGIA...

CITY           SKY/WX    TMP DP  RH WIND       PRES   REMARKS
SAVANNAH ARPT  PTCLDY    65  58  78 CALM      30.02S
HUNTER AAF     PTCLDY    65  64  98 CALM      29.99F
FORT STEWART   MOCLDY    61  59  91 CALM      30.00S
STATESBORO     PTCLDY    62  62 100 CALM      30.02S
SYLVANIA       MOSUNNY   63  63 100 CALM      30.03S
CLAXTON        FAIR     N/A N/A N/A CALM      30.03R

...CSRA...CENTRAL AND FAR SOUTHEAST GEORGIA...

CITY           SKY/WX    TMP DP  RH WIND       PRES   REMARKS
THOMSON        CLEAR     61  60  95 W3        30.06S
AUGUSTA-BUSH   CLEAR     63  61  93 CALM      29.99F
AUGUSTA-DANIEL PTCLDY    72  58  61 CALM      30.01F
SWAINSBORO     FAIR      63  63 100 CALM      30.03S
VIDALIA        CLEAR     64  63  94 CALM      30.03S
EASTMAN          N/A     60  60 100 CALM      30.06R FOG
HAZLEHURST     FAIR      65  65  97 CALM      30.02S
ALMA           CLEAR     61  59  93 CALM      30.03S
WAYCROSS       PTCLDY    64  64 100 CALM      30.04R
JESUP          FAIR      59  54  82 CALM      30.03S
BAXLEY         FAIR      61  61 100 CALM      30.03S
BRUNSWICK      CLEAR     63  63 100 SW3       30.04R
SAINT SIMONS   CLEAR     70  62  76 W7        30.03R

$$

SCZ027-028-034-036>038-045-046-048>050-GAZ119-141-271000-
...LAKE AND SUPPLEMENTAL COASTAL OBSERVATIONS...

STATION/POSITION TIME  TEMP    WIND        PRES    WAVE   SWELL
                       AIR SEA DIR/SP/G            HT/PER HT/PER/DIR
                 (UTC) (F)     (DEG/KT/KT) (MB)    (FT/S) (FT/S/D)
WINYAH BAY       NOT AVBL
LAKE MURRAY      0820   73     270/  9/ 11 1014.6S
ACE BASIN NERRS  0745   65        CALM     1016.0
FORT PULASKI     0848   70     230/  2/  3 1016.7F
SAPELO ISLAND    0800   69        CALM     1016.0

$$

ANZ835-935-AMZ111-154-330-350-352-354-370-450-454-472-271000-
...C-MAN AND BUOY OBSERVATIONS...

STATION/POSITION TIME  TEMP    WIND        PRES    WAVE   SWELL
                       AIR SEA DIR/SP/G            HT/PER HT/PER/DIR
                 (UTC) (F)     (DEG/KT/KT) (MB)    (FT/S) (FT/S/D)
BUOY 41004       0850   74 74  240/ 10/ 14 1015.8S   3/ 7   2/140/ 7
BUOY 41008       0750   77 77  200/ 10/ 12 1016.3    2/ 4   2/ 90/ 8
FOLLY BEACH CMAN 0800   71     250/  4/  5 1016.5F
CAPERS NEARSHORE 0808   78 76  260/ 10/ 14 1015.8F
FRIPP NEARSHORE  0808   76 77  270/  8/ 10 1015.8F


STATION/POSITION TIME  TEMP    WIND        PRES    WAVE   SWELL
                       AIR SEA DIR/SP/G            HT/PER HT/PER/DIR
                 (UTC) (F)     (DEG/KT/KT) (MB)    (FT/S) (FT/S/D)
5E ST. MARYS GA  0830      78                N/A     2/ 4
FRYING PAN BUOY  0850   74 74  240/ 14/ 16 1015.0F   3/ 6   2/ 20/11
BUOY 41025       0850   75 77  250/ 12/ 12 1013.8F   5/ 7   5/200/ 7
CAPE LOOKOUT NC  0800   72     250/  6/  7 1014.0F
BUOY 41002       0750   76 77  280/ 12/ 14 1016.2    5/ 7   3/180/ 7
BUOY 41010       0850   77 79  220/  6/  8 1017.3S   2/ 7   2/ 80/ 7
ST AUGUSTINE FL  0900   65 76  240/  5/  5 1018.1R


$$




USA.gov is the U.S. government's official web portal to all federal, state and local government web resources and services.